Flag for U.S.A. Weather past 2 weeks in Pocatello, Idaho, U.S.A.

Now
45 °F

Clear.


Feels Like: 42 °F
Forecast: 36 / 71 °F
Wind: 6 mph from Southwest

Location: Pocatello Regional Airport

Current Time: Mar 26, 2015 at 11:17:38 PM

Latest Report: Mar 26, 2015 at 10:53 PM


Visibility: 10 mi

Pressure: 30.31 "Hg

Humidity: 63%

Dew point: 33 °F

Location of PocatelloLocation

Historic Weather in Pocatello — Graph

°F

Pocatello temperature yesterday

Maximum temperature yesterday: 50 °F (at 5:53 PM)
Minimum temperature yesterday: 27 °F (at 5:53 AM)
Average temperature yesterday: 39 °F

Past Weeks' High & Low Weather Summary

 TemperatureHumidityPressure
High70 °F (Mar 15, 3:53 PM)97% (Mar 23, 9:53 AM)30.50 "Hg (Mar 23, 9:53 AM)
Low24 °F (Mar 20, 7:53 AM)9% (Mar 22, 2:53 PM)29.84 "Hg (Mar 23, 4:53 AM)
Average49 °F50%30.13 "Hg
* Reported Mar 11 9:53 PM — Mar 26 9:53 PM, Pocatello, Weather by CustomWeather, © 2015

Note: Actual official high and low records may vary slightly from our data, if they occured in-between our weather recording intervals... More about our weather records

Advertising

Pocatello weather history for previous 24 hours

 ConditionsComfort  
Time TempWeatherWind HumidityBarometerVisibility
9:53 PM
Thu, Mar 26
45 °FClear.8 mph65%30.31 "Hg10 mi
8:53 PM47 °FSunny.9 mph59%30.31 "Hg10 mi
7:53 PM54 °FSunny.9 mph45%30.29 "Hg10 mi
6:53 PM59 °FSunny.12 mph36%30.28 "Hg10 mi
5:53 PM60 °FSunny.13 mph36%30.28 "Hg10 mi
4:53 PM60 °FPassing clouds.15 mph35%30.29 "Hg10 mi
3:53 PM59 °FPassing clouds.14 mph36%30.30 "Hg10 mi
2:53 PM59 °FPassing clouds.14 mph38%30.33 "Hg10 mi
1:53 PM57 °FPassing clouds.17 mph41%30.36 "Hg10 mi
12:53 PM54 °FPassing clouds.18 mph45%30.39 "Hg10 mi
11:53 AM52 °FPassing clouds.15 mph50%30.40 "Hg10 mi
10:53 AM48 °FPassing clouds.13 mph59%30.42 "Hg10 mi
9:53 AM46 °FPassing clouds.14 mph63%30.42 "Hg10 mi
8:53 AM42 °FPassing clouds.9 mph73%30.42 "Hg10 mi
7:53 AM37 °FPassing clouds.9 mph82%30.43 "Hg10 mi
6:53 AM37 °FPassing clouds.10 mph82%30.40 "Hg10 mi
5:53 AM38 °FClear.9 mph79%30.41 "Hg10 mi
4:53 AM39 °FClear.14 mph76%30.39 "Hg10 mi
3:53 AM40 °FClear.13 mph70%30.39 "Hg10 mi
2:53 AM41 °FClear.15 mph67%30.40 "Hg10 mi
1:53 AM41 °FClear.14 mph67%30.38 "Hg10 mi
12:53 AM41 °FClear.13 mph62%30.40 "Hg10 mi
11:53 PM
Wed, Mar 25
42 °FClear.14 mph55%30.38 "Hg10 mi
Weather by CustomWeather, © 2015

See weather overviewHow to use our weather pages